Change the Weather History Date:

Tuesday, July 16, 2013

  Actual Average (KRDM) Record (KRDM)
Temperature  
Mean Temperature 71 °F 66 °F  
Max Temperature 82 °F 86 °F 100 °F (1960)
Min Temperature 60 °F 47 °F 33 °F (1964)
Degree Days  
Heating Degree Days 0 2  
Month to date heating degree days 47  
Since 1 June heating degree days 264  
Since 1 July heating degree days 47  
Cooling Degree Days 6 3  
Month to date cooling degree days 41  
Year to date cooling degree days 70  
Since 1 June cooling degree days 65  
Growing Degree Days 21 (Base 50)    
Moisture  
Dew Point 36 °F    
Average Humidity 29    
Maximum Humidity 43    
Minimum Humidity 20    
Precipitation  
Precipitation 0.00 in 0.01 in 0.18 in (1991)
Month to date precipitation 0.29  
Year to date precipitation 4.97  
Sea Level Pressure  
Sea Level Pressure 29.96 in    
Wind  
Wind Speed 9 mph (NNW)    
Max Wind Speed 15 mph    
Max Gust Speed 18 mph    
Visibility 10 miles    
Events Rain    
T = Trace of Precipitation, MM = Missing Value Source: NWS Daily Summary

Daily Weather History Graph

Daily Weather History Graph

Search for Another Location

Airport or City:

Trip Planner

Search our weather history database for the weather conditions in past years. The results will help you decide how hot, cold, wet, or windy it might be!

Date:

Astronomy

Jul. 16, 2013 Rise Set
Actual Time 5:36 AM PDT 8:44 PM PDT
Civil Twilight 5:01 AM PDT 9:19 PM PDT
Nautical Twilight 4:16 AM PDT 10:04 PM PDT
Astronomical Twilight 3:22 AM PDT 10:57 PM PDT
Moon 2:27 PM PDT (7/16) 12:15 AM PDT (7/16)
Length of Visible Light 16h 17m
Length of Day
15h 07m
First Quarter, 57% of the Moon is Illuminated
Jul 16
First Quarter
Jul 22
Full
Jul 29
Last Quarter
Aug 6
New
Aug 14
First Quarter

Hourly Weather History & Observations

Time (PDT) Temp. Dew Point Humidity Pressure Visibility Wind Dir Wind Speed Gust Speed Precip Events Conditions
12:15 AM 66.2 °F 33.8 °F 30% 29.98 in 10.0 mi NW 8.1 mph - N/A   Clear
12:35 AM 66.2 °F 33.8 °F 30% 29.98 in 10.0 mi NW 8.1 mph - N/A   Clear
12:55 AM 64.4 °F 33.8 °F 32% 29.98 in 10.0 mi NW 8.1 mph - N/A   Clear
1:15 AM 64.4 °F 35.6 °F 34% 29.99 in 10.0 mi NW 6.9 mph - N/A   Clear
1:35 AM 64.4 °F 35.6 °F 34% 29.99 in 10.0 mi NW 6.9 mph - N/A   Clear
1:55 AM 64.4 °F 35.6 °F 34% 29.98 in 10.0 mi WNW 9.2 mph - N/A   Clear
2:15 AM 64.4 °F 35.6 °F 34% 29.98 in 10.0 mi NW 9.2 mph - N/A   Clear
2:35 AM 64.4 °F 33.8 °F 32% 29.98 in 10.0 mi NW 10.4 mph - N/A   Clear
2:55 AM 64.4 °F 33.8 °F 32% 29.97 in 10.0 mi NW 8.1 mph - N/A   Clear
3:15 AM 64.4 °F 33.8 °F 32% 29.97 in 10.0 mi NW 9.2 mph - N/A   Clear
3:35 AM 64.4 °F 32.0 °F 30% 29.97 in 10.0 mi NW 8.1 mph - N/A   Clear
3:55 AM 62.6 °F 32.0 °F 32% 29.97 in 10.0 mi NW 8.1 mph - N/A   Clear
4:15 AM 62.6 °F 32.0 °F 32% 29.97 in 10.0 mi NW 8.1 mph - N/A   Clear
4:35 AM 62.6 °F 32.0 °F 32% 29.97 in 10.0 mi WNW 6.9 mph - N/A   Clear
4:55 AM 62.6 °F 32.0 °F 32% 29.97 in 10.0 mi NW 8.1 mph - N/A   Clear
5:15 AM 62.6 °F 32.0 °F 32% 29.96 in 10.0 mi NW 9.2 mph - N/A   Clear
5:35 AM 62.6 °F 32.0 °F 32% 29.96 in 10.0 mi NW 8.1 mph - N/A   Clear
5:55 AM 60.8 °F 32.0 °F 34% 29.96 in 10.0 mi NW 6.9 mph - N/A   Clear
6:15 AM 62.6 °F 32.0 °F 32% 29.96 in 10.0 mi NW 8.1 mph - N/A   Clear
6:35 AM 62.6 °F 32.0 °F 32% 29.97 in 10.0 mi NW 10.4 mph - N/A   Clear
6:55 AM 64.4 °F 32.0 °F 30% 29.97 in 10.0 mi NW 9.2 mph - N/A   Clear
7:15 AM 64.4 °F 32.0 °F 30% 29.97 in 10.0 mi NNW 8.1 mph - N/A   Clear
7:35 AM 64.4 °F 32.0 °F 30% 29.97 in 10.0 mi NNW 13.8 mph - N/A   Clear
7:55 AM 64.4 °F 32.0 °F 30% 29.98 in 10.0 mi NNW 11.5 mph 16.1 mph N/A   Clear
8:15 AM 66.2 °F 32.0 °F 28% 29.98 in 10.0 mi NNW 12.7 mph 16.1 mph N/A   Clear
8:55 AM 66.2 °F 33.8 °F 30% 29.98 in 10.0 mi NNW 10.4 mph - N/A   Clear
9:15 AM 68.0 °F 33.8 °F 28% 29.98 in 10.0 mi North 5.8 mph - N/A   Clear
9:35 AM 68.0 °F 33.8 °F 28% 29.98 in 10.0 mi NNW 11.5 mph - N/A   Clear
9:55 AM 69.8 °F 35.6 °F 28% 29.97 in 10.0 mi North 10.4 mph 18.4 mph N/A   Clear
10:15 AM 71.6 °F 35.6 °F 27% 29.97 in 10.0 mi North 12.7 mph 16.1 mph N/A   Clear
10:35 AM 71.6 °F 35.6 °F 27% 29.96 in 10.0 mi NNW 10.4 mph - N/A   Clear
10:55 AM 71.6 °F 35.6 °F 27% 29.96 in 10.0 mi North 11.5 mph 16.1 mph N/A   Clear
11:15 AM 71.6 °F 35.6 °F 27% 29.96 in 10.0 mi North 11.5 mph 16.1 mph N/A   Clear
11:35 AM 71.6 °F 35.6 °F 27% 29.94 in 10.0 mi NNW 15.0 mph 18.4 mph N/A   Clear
11:55 AM 71.6 °F 37.4 °F 29% 29.98 in 10.0 mi NNW 6.9 mph - N/A   Clear
12:15 PM 73.4 °F 37.4 °F 27% 29.94 in 10.0 mi North 11.5 mph 17.3 mph N/A   Clear
12:35 PM 75.2 °F 37.4 °F 25% 29.94 in 10.0 mi North 8.1 mph - N/A Rain Light Rain
1:55 PM 75.2 °F 35.6 °F 24% 29.95 in 10.0 mi NNW 9.2 mph - N/A   Clear
2:15 PM 77.0 °F 35.6 °F 22% 29.95 in 10.0 mi NNW 8.1 mph - N/A   Clear
2:35 PM 78.8 °F 35.6 °F 21% 29.94 in 10.0 mi North 8.1 mph - N/A   Clear
2:55 PM 80.6 °F 35.6 °F 20% 29.94 in 10.0 mi East 4.6 mph - N/A   Clear
3:15 PM 82.4 °F 37.4 °F 20% 29.94 in 10.0 mi North 6.9 mph - N/A   Clear
3:35 PM 82.4 °F 37.4 °F 20% 29.94 in 10.0 mi North 6.9 mph - N/A   Partly Cloudy
3:55 PM 80.6 °F 37.4 °F 21% 29.93 in 10.0 mi NNW 11.5 mph 18.4 mph N/A   Clear
4:15 PM 82.4 °F 37.4 °F 20% 29.93 in 10.0 mi North 10.4 mph 16.1 mph N/A   Clear
4:35 PM 82.4 °F 37.4 °F 20% 29.93 in 9.0 mi North 13.8 mph 17.3 mph N/A   Clear
4:55 PM 82.4 °F 37.4 °F 20% 29.92 in 10.0 mi NNW 12.7 mph 16.1 mph N/A   Clear
5:15 PM 82.4 °F 37.4 °F 20% 29.92 in 10.0 mi NNW 12.7 mph - N/A   Clear
5:35 PM 82.4 °F 37.4 °F 20% 29.91 in 10.0 mi NNW 12.7 mph 18.4 mph N/A   Clear
5:55 PM 82.4 °F 37.4 °F 20% 29.92 in 10.0 mi North 15.0 mph - N/A   Clear
6:15 PM 82.4 °F 37.4 °F 20% 29.92 in 10.0 mi North 11.5 mph - N/A   Clear
6:35 PM 82.4 °F 37.4 °F 20% 29.92 in 10.0 mi North 12.7 mph - N/A   Clear
6:55 PM 82.4 °F 37.4 °F 20% 29.93 in 10.0 mi North 11.5 mph - N/A   Clear
7:15 PM 80.6 °F 37.4 °F 21% 29.93 in 10.0 mi North 9.2 mph - N/A   Clear
7:35 PM 80.6 °F 37.4 °F 21% 29.93 in 10.0 mi North 11.5 mph - N/A   Clear
7:55 PM 80.6 °F 37.4 °F 21% 29.93 in 10.0 mi North 11.5 mph - N/A   Clear
8:15 PM 78.8 °F 41.0 °F 26% 29.95 in 10.0 mi NW 11.5 mph - N/A   Clear
8:35 PM 75.2 °F 46.4 °F 36% 29.96 in 10.0 mi NW 10.4 mph - N/A   Clear
8:55 PM 75.2 °F 44.6 °F 34% 29.97 in 10.0 mi NW 5.8 mph - N/A   Clear
9:15 PM 73.4 °F 42.8 °F 33% 29.98 in 10.0 mi NNW 8.1 mph - N/A   Clear
9:35 PM 71.6 °F 42.8 °F 35% 29.99 in 10.0 mi NW 9.2 mph - N/A   Clear
9:55 PM 71.6 °F 42.8 °F 35% 30.00 in 10.0 mi NW 8.1 mph - N/A   Clear
10:15 PM 69.8 °F 42.8 °F 38% 30.01 in 10.0 mi NW 8.1 mph - N/A   Clear
10:35 PM 68.0 °F 42.8 °F 40% 30.02 in 10.0 mi NW 6.9 mph - N/A   Clear
10:55 PM 68.0 °F 41.0 °F 37% 30.02 in 10.0 mi WNW 4.6 mph - N/A   Clear
11:15 PM 66.2 °F 42.8 °F 43% 30.03 in 10.0 mi West 5.8 mph - N/A   Clear
11:35 PM 66.2 °F 41.0 °F 40% 30.03 in 10.0 mi West 4.6 mph - N/A   Clear
11:55 PM 64.4 °F 41.0 °F 42% 30.04 in 10.0 mi WSW 5.8 mph - N/A   Clear